Walden-Jackson Cnty AP, Walde, CO

7:57 AM MDT on October 17, 2017 (GMT -0600)
Walden-Jackson Cnty AP, Walde

Weather History for K33V - April, 2014

Change the Weather History Date:

Saturday, April 26, 2014

  Actual Average Record
Temperature  
Mean Temperature 44 °F -  
Max Temperature 57 °F - 57 °F (2014)
Min Temperature 32 °F - 21 °F (2013)
Degree Days  
Heating Degree Days 20    
Month to date heating degree days  
Cooling Degree Days 0    
Month to date cooling degree days  
Moisture  
Dew Point 23 °F    
Average Humidity 48    
Maximum Humidity 100    
Minimum Humidity 18    
Precipitation  
Precipitation 0.00 in - 0.00 in (2017)
Sea Level Pressure  
Sea Level Pressure 29.62 in    
Wind  
Wind Speed 10 mph (South)    
Max Wind Speed 31 mph    
Max Gust Speed 39 mph    
Visibility 10 miles    
Events      
T = Trace of Precipitation, MM = Missing Value Source: NWS Daily Summary

Daily Weather History Graph

Daily Weather History Graph

Search for Another Location

Airport or City:

Trip Planner

Search our weather history database for the weather conditions in past years. The results will help you decide how hot, cold, wet, or windy it might be!

Date:

Astronomy

Apr. 26, 2014 Rise Set
Actual Time 6:10 AM MDT 7:56 PM MDT
Civil Twilight 5:40 AM MDT 8:25 PM MDT
Nautical Twilight 5:05 AM MDT 9:01 PM MDT
Astronomical Twilight 4:27 AM MDT 9:39 PM MDT
Moon 4:37 AM MDT (4/26) 5:26 PM MDT (4/26)
Length of Visible Light 14h 44m
Length of Day
13h 46m
Waning Crescent, 8% of the Moon is Illuminated
Apr 26
Waning Crescent
Apr 29
New
May 6
First Quarter
May 14
Full
May 21
Last Quarter

Hourly Weather History & Observations

Time (MDT) Temp. Windchill Dew Point Humidity Pressure Visibility Wind Dir Wind Speed Gust Speed Precip Events Conditions
12:16 AM 33.8 °F 28.6 °F 19.4 °F 56% 29.75 in 10.0 mi ESE 5.8 mph - N/A   Scattered Clouds
12:36 AM 33.8 °F 26.4 °F 17.6 °F 52% 29.75 in 10.0 mi ESE 9.2 mph - N/A   Mostly Cloudy
12:56 AM 35.6 °F 30.7 °F 17.6 °F 48% 29.75 in 10.0 mi ESE 5.8 mph - N/A   Scattered Clouds
1:16 AM 35.6 °F 30.7 °F 17.6 °F 48% 29.75 in 10.0 mi East 5.8 mph - N/A   Clear
1:36 AM 35.6 °F 30.7 °F 15.8 °F 44% 29.75 in 10.0 mi SE 5.8 mph - N/A   Scattered Clouds
1:56 AM 35.6 °F 32.8 °F 17.6 °F 48% 29.75 in 10.0 mi SE 3.5 mph - N/A   Clear
2:16 AM 39.2 °F 35.9 °F 15.8 °F 39% 29.75 in 10.0 mi South 4.6 mph - N/A   Scattered Clouds
2:36 AM 41.0 °F 37.1 °F 17.6 °F 39% 29.75 in 10.0 mi SSW 5.8 mph - N/A   Mostly Cloudy
2:55 AM 46.4 °F 38.1 °F 23.0 °F 40% 29.75 in 10.0 mi SW 24.2 mph 31.1 mph N/A   Overcast
3:16 AM 44.6 °F 38.1 °F 23.0 °F 43% 29.74 in 10.0 mi WSW 13.8 mph 17.3 mph N/A   Mostly Cloudy
3:36 AM 42.8 °F 37.5 °F 23.0 °F 46% 29.74 in 10.0 mi South 9.2 mph - N/A   Overcast
3:56 AM 42.8 °F 38.6 °F 23.0 °F 46% 29.74 in 10.0 mi South 6.9 mph - N/A   Mostly Cloudy
4:16 AM 41.0 °F 37.1 °F 24.8 °F 53% 29.74 in 10.0 mi South 5.8 mph - N/A   Scattered Clouds
4:36 AM 35.6 °F 30.7 °F 24.8 °F 65% 29.74 in 10.0 mi SE 5.8 mph - N/A   Clear
4:56 AM 37.4 °F 32.1 °F 26.6 °F 65% 29.73 in 10.0 mi SSE 6.9 mph - N/A   Clear
5:16 AM 35.6 °F 29.9 °F 26.6 °F 70% 29.73 in 10.0 mi ESE 6.9 mph - N/A   Clear
5:36 AM 37.4 °F 28.9 °F 26.6 °F 65% 29.71 in 10.0 mi ESE 13.8 mph 19.6 mph N/A   Clear
5:56 AM 41.0 °F 35.8 °F 24.8 °F 53% 29.70 in 10.0 mi ESE 8.1 mph 19.6 mph N/A   Clear
6:16 AM 39.2 °F 32.5 °F 24.8 °F 56% 29.70 in 10.0 mi SE 10.4 mph - N/A   Clear
6:35 AM 39.2 °F 33.0 °F 26.6 °F 61% 29.69 in 10.0 mi ESE 9.2 mph - N/A   Clear
6:56 AM 41.0 °F 35.8 °F 26.6 °F 57% 29.69 in 10.0 mi East 8.1 mph - N/A   Clear
7:16 AM 41.0 °F 38.0 °F 26.6 °F 57% 29.69 in 10.0 mi SE 4.6 mph - N/A   Clear
7:35 AM 41.0 °F 38.0 °F 26.6 °F 57% 29.68 in 10.0 mi ESE 4.6 mph - N/A   Clear
7:56 AM 42.8 °F 40.1 °F 26.6 °F 53% 29.68 in 10.0 mi SSE 4.6 mph - N/A   Clear
8:15 AM 44.6 °F 42.2 °F 26.6 °F 49% 29.67 in 10.0 mi SE 4.6 mph - N/A   Clear
8:35 AM 46.4 °F 44.3 °F 26.6 °F 46% 29.66 in 10.0 mi SE 4.6 mph - N/A   Clear
8:56 AM 50.0 °F - 26.6 °F 40% 29.65 in 10.0 mi South 6.9 mph - N/A   Clear
9:16 AM 50.0 °F - 23.0 °F 35% 29.64 in 10.0 mi South 9.2 mph - N/A   Clear
9:36 AM 50.0 °F - 21.2 °F 32% 29.63 in 10.0 mi South 16.1 mph 19.6 mph N/A   Clear
9:56 AM 51.8 °F - 23.0 °F 33% 29.62 in 10.0 mi South 12.7 mph 17.3 mph N/A   Clear
10:15 AM 51.8 °F - 21.2 °F 30% 29.61 in 10.0 mi South 11.5 mph 17.3 mph N/A   Clear
10:36 AM 53.6 °F - 23.0 °F 30% 29.59 in 10.0 mi SE 11.5 mph 20.7 mph N/A   Clear
10:56 AM 53.6 °F - 19.4 °F 26% 29.59 in 10.0 mi SSW 20.7 mph 28.8 mph N/A   Clear
11:16 AM 53.6 °F - 19.4 °F 26% 29.59 in 10.0 mi South 24.2 mph 29.9 mph N/A   Clear
11:36 AM 55.4 °F - 19.4 °F 25% 29.58 in 10.0 mi South 18.4 mph 24.2 mph N/A   Scattered Clouds
11:56 AM 57.2 °F - 19.4 °F 23% 29.58 in 10.0 mi SSW 24.2 mph 32.2 mph N/A   Mostly Cloudy
12:16 PM 55.4 °F - 17.6 °F 23% 29.57 in 10.0 mi South 23.0 mph 31.1 mph N/A   Mostly Cloudy
12:36 PM 55.4 °F - 17.6 °F 23% 29.56 in 10.0 mi South 23.0 mph 34.5 mph N/A   Scattered Clouds
12:56 PM 55.4 °F - 14.0 °F 20% 29.55 in 10.0 mi SSW 31.1 mph 39.1 mph N/A   Clear
1:15 PM 55.4 °F - 12.2 °F 18% 29.54 in 10.0 mi SSW 26.5 mph 36.8 mph N/A   Clear
1:36 PM 55.4 °F - 14.0 °F 20% 29.54 in 10.0 mi SSW 25.3 mph 32.2 mph N/A   Clear
1:56 PM 55.4 °F - 14.0 °F 20% 29.54 in 10.0 mi SSW 27.6 mph 34.5 mph N/A   Clear
2:16 PM 55.4 °F - 14.0 °F 20% 29.54 in 10.0 mi SSW 21.9 mph 34.5 mph N/A   Scattered Clouds
2:36 PM 55.4 °F - 17.6 °F 23% 29.53 in 10.0 mi SW 16.1 mph 27.6 mph N/A   Scattered Clouds
2:56 PM 55.4 °F - 15.8 °F 21% 29.53 in 10.0 mi SW 19.6 mph 29.9 mph N/A   Scattered Clouds
3:16 PM 55.4 °F - 17.6 °F 23% 29.52 in 10.0 mi SW 19.6 mph 26.5 mph N/A   Scattered Clouds
3:36 PM 55.4 °F - 15.8 °F 21% 29.51 in 10.0 mi SW 16.1 mph 21.9 mph N/A   Clear
3:56 PM 55.4 °F - 15.8 °F 21% 29.51 in 10.0 mi SW 16.1 mph 25.3 mph N/A   Scattered Clouds
4:16 PM 53.6 °F - 15.8 °F 22% 29.51 in 10.0 mi SW 18.4 mph 24.2 mph N/A   Scattered Clouds
4:35 PM 51.8 °F - 21.2 °F 30% 29.51 in 10.0 mi West 19.6 mph 26.5 mph N/A   Mostly Cloudy
4:56 PM 50.0 °F - 23.0 °F 35% 29.51 in 10.0 mi West 19.6 mph 24.2 mph N/A   Overcast
5:16 PM 50.0 °F - 26.6 °F 40% 29.51 in 10.0 mi West 16.1 mph 27.6 mph N/A   Mostly Cloudy
5:36 PM 50.0 °F - 26.6 °F 40% 29.51 in 10.0 mi West 11.5 mph - N/A   Mostly Cloudy
5:56 PM 50.0 °F - 26.6 °F 40% 29.51 in 10.0 mi West 6.9 mph - N/A   Mostly Cloudy
6:16 PM 50.0 °F - 24.8 °F 37% 29.50 in 10.0 mi Calm Calm - N/A   Scattered Clouds
6:36 PM 50.0 °F - 26.6 °F 40% 29.50 in 10.0 mi WNW 4.6 mph - N/A   Mostly Cloudy
6:56 PM 46.4 °F 40.7 °F 28.4 °F 50% 29.51 in 10.0 mi WSW 12.7 mph - N/A   Overcast
7:16 PM 44.6 °F 40.2 °F 28.4 °F 53% 29.50 in 10.0 mi West 8.1 mph - N/A   Overcast
7:36 PM 42.8 °F 38.0 °F 28.4 °F 57% 29.51 in 10.0 mi West 8.1 mph - N/A   Overcast
7:56 PM 41.0 °F 33.9 °F 28.4 °F 61% 29.54 in 10.0 mi SW 12.7 mph - N/A   Overcast
8:16 PM 39.2 °F 30.5 °F 28.4 °F 65% 29.54 in 10.0 mi WSW 16.1 mph 23.0 mph N/A   Overcast
8:36 PM 37.4 °F 30.8 °F 30.2 °F 75% 29.54 in 10.0 mi West 9.2 mph - N/A   Overcast
8:56 PM 37.4 °F 29.3 °F 30.2 °F 75% 29.56 in 10.0 mi SW 12.7 mph - N/A   Overcast
9:16 PM 35.6 °F 24.5 °F 28.4 °F 75% 29.58 in 10.0 mi WSW 20.7 mph 24.2 mph N/A   Overcast
9:36 PM 33.8 °F 26.4 °F 32.0 °F 93% 29.59 in 10.0 mi WSW 9.2 mph - N/A   Overcast
9:55 PM 33.8 °F 24.8 °F 30.2 °F 87% 29.60 in 4.0 mi WSW 12.7 mph 16.1 mph N/A   Overcast
10:16 PM 33.8 °F 29.6 °F 32.0 °F 93% 29.60 in 1.0 mi SSW 4.6 mph - N/A   Overcast
10:36 PM 33.8 °F 30.8 °F 32.0 °F 93% 29.59 in 2.5 mi South 3.5 mph - N/A   Overcast
10:55 PM 32.0 °F 28.7 °F 32.0 °F 100% 29.58 in 7.0 mi SE 3.5 mph - N/A   Overcast
11:15 PM 33.8 °F 28.6 °F 32.0 °F 93% 29.57 in 4.0 mi SE 5.8 mph - N/A   Overcast
11:36 PM 33.8 °F 28.6 °F 32.0 °F 93% 29.57 in 10.0 mi SE 5.8 mph - N/A   Overcast
11:56 PM 33.8 °F 27.0 °F 32.0 °F 93% 29.56 in 4.0 mi SE 8.1 mph - N/A   Overcast